[[{"header":{"parameterUnit":"m.s-1","parameterCategory":1,"la1":30.2992,"la2":30.254,"lo1":-89.0895,"lo2":-89.0443,"dy":0.0025,"dx":0.0025,"nx":19,"ny":19,"refTime":"2026-05-22T09:00:00:Z","depth":0,"parameterNumber":2,"parameterNumberName":"U-component_of_WINDS"},"data":[0,0,0,-1.2021,-1.2023,-1.2148,-1.2148,-1.2296,-1.2297,0,0,0,0,0,0,0,0,0,0,0,-1.1976,-1.1976,-1.2021,-1.2024,-1.2148,-1.2149,-1.2296,-1.2297,0,0,0,0,0,0,0,0,0,0,0,-1.1975,-1.1976,-1.1977,-1.2024,-1.2148,-1.2149,-1.2296,-1.2206,0,0,0,0,0,0,0,0,0,0,-1.2088,-1.2037,-1.1976,-1.1977,-1.2025,-1.2148,-1.2149,-1.2202,-1.2212,-1.2235,0,-1.2251,0,-1.2276,-1.2306,-1.2307,0,0,0,-1.203,-1.2029,-1.207,-1.1977,-1.2026,-1.2147,-1.2094,-1.2208,-1.2219,-1.2247,-1.2253,-1.2259,-1.2279,-1.2307,-1.2308,-1.2412,-1.2413,0,0,-1.2023,-1.1994,-1.2062,-1.2077,-1.2055,-1.209,-1.2097,-1.2215,-1.222,-1.2254,-1.2263,-1.2281,-1.2308,-1.2309,-1.2412,-1.2412,0,0,0,-1.1999,-1.1989,-1.2027,-1.207,-1.2093,-1.2093,-1.2102,-1.2215,-1.223,-1.2265,-1.2283,-1.2309,-1.2311,-1.2412,-1.2412,-1.2391,0,0,0,-1.1995,-1.1975,-1.2024,-1.2007,-1.2091,-1.2155,-1.2099,-1.2221,-1.2236,-1.2282,-1.2309,-1.2312,-1.2412,-1.2412,-1.2391,-1.2386,0,0,0,-1.1971,-1.1972,-1.1987,-1.2005,-1.2058,-1.2154,-1.2176,-1.2225,-1.2247,-1.2307,-1.2312,-1.2412,-1.2412,-1.2392,-1.2387,-1.2404,0,0,0,-1.1936,-1.1967,-1.1986,-1.2029,-1.2056,-1.2139,-1.2175,-1.224,-1.2289,-1.231,-1.2412,-1.2412,-1.2392,-1.2387,-1.2404,-1.2413,-1.2414,0,0,-1.1959,-1.1969,-1.1997,-1.2017,-1.2089,-1.2123,-1.2193,-1.2267,-1.2301,-1.2374,-1.2377,-1.2391,-1.2387,-1.2404,-1.2432,-1.2432,0,0,0,-1.1994,-1.2013,-1.2039,-1.2083,-1.214,-1.2188,-1.2254,-1.2282,-1.2345,-1.2332,-1.2404,-1.2402,-1.2414,-1.2419,-1.242,-1.2432,-1.2414,-1.2414,-1.2414,-1.1985,-1.2025,-1.2073,-1.2127,-1.2171,-1.2238,-1.2277,-1.2326,-1.2356,-1.2372,-1.2394,-1.2405,-1.2411,-1.2411,-1.2423,-1.2402,-1.2402,-1.2402,-1.2402,-1.2022,-1.2055,-1.2092,-1.2151,-1.2194,-1.2245,-1.2312,-1.2331,-1.2386,-1.2392,-1.2405,-1.2408,-1.241,-1.2423,-1.2401,-1.2401,-1.2401,-1.2401,-1.2401,-1.202,-1.2043,-1.2075,-1.2143,-1.2192,-1.2248,-1.2298,-1.2336,-1.2372,-1.2384,-1.2411,-1.2411,-1.2416,-1.2394,-1.2394,-1.2394,-1.2394,-1.2394,-1.2394,-1.2004,-1.2041,-1.2078,-1.214,-1.2173,-1.2223,-1.2291,-1.2326,-1.2374,-1.2398,-1.2398,-1.2425,-1.2403,-1.2396,-1.2395,-1.2395,-1.2395,-1.2395,-1.2395,-1.2027,-1.2027,-1.2084,-1.2117,-1.2193,-1.2239,-1.2286,-1.2354,-1.2388,-1.2412,-1.2437,-1.2414,-1.2428,-1.2428,-1.2422,-1.2428,-1.2428,-1.2428,-1.2428,-1.2024,-1.2034,-1.21,-1.2151,-1.2206,-1.2254,-1.2318,-1.2371,-1.2428,-1.2452,-1.2457,-1.2453,-1.2451,-1.2466,-1.2465,-1.246,-1.2476,-1.2476,-1.2476,-1.204,-1.2057,-1.2103,-1.2156,-1.2218,-1.2271,-1.2332,-1.239,-1.2455,-1.2478,-1.2471,-1.2469,-1.2464,-1.246,-1.2483,-1.2481,-1.2473,0,0]},{"header":{"parameterUnit":"m.s-1","parameterCategory":1,"la1":30.2992,"la2":30.254,"lo1":-89.0895,"lo2":-89.0443,"dy":0.0025,"dx":0.0025,"nx":19,"ny":19,"refTime":"2026-05-22T09:00:00:Z","depth":0,"parameterNumber":3,"parameterNumberName":"V-component_of_WINDS"},"data":[0,0,0,3.2932,3.2934,3.3024,3.3024,3.3148,3.3149,0,0,0,0,0,0,0,0,0,0,0,3.2913,3.2914,3.2932,3.2935,3.3024,3.3024,3.3148,3.3149,0,0,0,0,0,0,0,0,0,0,0,3.2912,3.2914,3.2915,3.2935,3.3024,3.3024,3.3147,3.3076,0,0,0,0,0,0,0,0,0,0,3.2988,3.2977,3.2913,3.2915,3.2936,3.3024,3.3024,3.3073,3.3081,3.3112,0,3.3143,0,3.3148,3.3158,3.3159,0,0,0,3.2929,3.2971,3.2988,3.2915,3.2936,3.3024,3.2982,3.3077,3.3086,3.3123,3.3144,3.3149,3.315,3.3159,3.316,3.3361,3.3362,0,0,3.2924,3.2933,3.2982,3.2995,3.2983,3.2979,3.2985,3.3082,3.3106,3.3145,3.3151,3.3152,3.316,3.3161,3.336,3.3362,0,0,0,3.2914,3.2929,3.2945,3.299,3.3005,3.2982,3.2989,3.3102,3.3106,3.3153,3.3154,3.3161,3.3162,3.3359,3.3361,3.343,0,0,0,3.291,3.2923,3.2943,3.2949,3.3004,3.3055,3.3006,3.3099,3.311,3.3153,3.3161,3.3164,3.3358,3.336,3.3425,3.3461,0,0,0,3.2905,3.2923,3.2938,3.2949,3.2988,3.3053,3.3063,3.3102,3.3111,3.3159,3.3164,3.3357,3.3359,3.3421,3.3454,3.3518,0,0,0,3.2901,3.2998,3.2939,3.3048,3.2987,3.3096,3.3062,3.3142,3.3191,3.3161,3.3358,3.3361,3.342,3.345,3.3513,3.3573,3.3599,0,0,3.3028,3.3013,3.3076,3.3027,3.3148,3.3081,3.3212,3.3248,3.3243,3.3322,3.3327,3.3427,3.3454,3.3517,3.3738,3.3758,0,0,0,3.3119,3.3165,3.3195,3.3243,3.3273,3.3302,3.3317,3.333,3.3397,3.3286,3.3466,3.3482,3.3518,3.3546,3.3564,3.3595,3.3374,3.3373,3.3373,3.3312,3.3302,3.3406,3.3407,3.3453,3.3468,3.3504,3.3524,3.35,3.3543,3.3566,3.3702,3.3735,3.3748,3.3781,3.3596,3.3596,3.3597,3.3597,3.3498,3.3561,3.3527,3.3615,3.3604,3.3677,3.3694,3.3674,3.3741,3.3683,3.3715,3.3654,3.3771,3.3799,3.3602,3.3601,3.36,3.36,3.36,3.3624,3.3653,3.3668,3.3736,3.3788,3.3785,3.385,3.3836,3.3824,3.3855,3.3879,3.3878,3.3876,3.3867,3.3868,3.3868,3.3869,3.3869,3.3869,3.375,3.3765,3.3822,3.3862,3.3891,3.3927,3.3941,3.3969,3.3995,3.398,3.398,3.3952,3.3784,3.3743,3.3876,3.3875,3.3874,3.3874,3.3873,3.3945,3.3898,3.3988,3.4016,3.4062,3.4115,3.4096,3.4153,3.4173,3.4206,3.417,3.4048,3.4032,3.4018,3.3984,3.4172,3.4172,3.4172,3.4172,3.4052,3.4043,3.413,3.4177,3.4221,3.4213,3.4313,3.4325,3.4329,3.4341,3.4312,3.4265,3.4251,3.4243,3.4224,3.4192,3.4429,3.4429,3.4429,3.4172,3.4166,3.4254,3.4259,3.4293,3.4322,3.4416,3.447,3.4465,3.4439,3.435,3.4339,3.4263,3.4239,3.4213,3.4184,3.4125,0,0]}]]